Location: Baggettsville
(36.4767°N, 86.7303°W)
Time: 19:20:28
(UTC+00:00)

N. Korean satellite - Pass Details

Date: 23 September 2021
Orbit: 450 x 495 km, 97.3° (Epoch: 16 October)

Event Time Altitude Azimuth Distance (km) Brightness Sun altitude
Rises 10:45:29 0° 17° (NNE) 2,521 10.5 -10.9°
Reaches altitude 10° 10:47:34 10° 22° (NNE) 1,648 9.7 -10.5°
Maximum altitude 10:51:02 52° 100° (E) 600 7.5 -9.8°
Drops below altitude 10° 10:54:31 10° 178° (S) 1,660 9.2 -9.1°
Sets 10:56:38 0° 183° (S) 2,543 10.1 -8.7°
